Lid_Strength_Index
2 2 1 0 0 0 1 1 1 2 1 1 1 1 1 0 0 1 0 -1 -1 -1 -1 -1 -1 -1 -1 -1 -1 -1 -1 -1 -1 -1 -1 -1 -1 -0 0 -1 -1 -1 -2
2 2 1 1 2 2 2 2 1 2 2 2 2 2 2 0 0 0 -0 0 -1 -1 -1 -1 -1 -1 -1 -1 -1 -1 -1 -1 -1 -1 -1 -1 -0 0 0 -0 -0 -1 -1
2 2 2 3 2 2 2 2 2 2 2 2 2 2 2 1 1 0 0 0 0 -1 -1 -1 -1 -1 -1 -1 -2 -1 -1 -1 -2 -1 -1 -1 0 1 1 -0 -0 -1 -1
2 2 3 3 2 2 2 2 2 2 2 2 2 2 2 2 1 0 0 0 1 0 -1 -1 -1 -1 -1 -2 -2 -1 -0 -1 -1 -1 -1 -0 1 1 0 -1 -0 -0 -1
1 2 3 3 2 2 3 2 3 2 3 3 2 2 2 2 1 0 0 0 1 0 1 -1 -1 -1 -1 -1 -2 -1 -2 -1 -1 -1 -0 0 1 0 -0 -1 0 -0 0
1 3 3 3 2 3 3 3 3 2 3 3 2 2 2 2 1 2 1 1 1 -0 1 0 -0 -1 -1 -1 -1 -1 -1 -1 -1 -0 0 0 0 -0 -0 -0 -0 -0 0
2 2 3 2 3 3 3 2 2 3 3 3 3 4 3 2 1 1 1 0 0 0 1 0 -0 -0 -1 -1 -1 -2 -2 -2 -1 0 0 0 -0 -1 -0 -1 -1 -0 0
2 2 2 2 2 3 3 2 3 3 3 3 4 4 6 4 2 1 1 1 1 1 0 0 -0 -0 -0 -0 -1 -1 -1 -1 -1 -0 0 0 -1 -1 -1 -1 -1 -0 0
1 1 2 2 3 3 3 3 3 2 4 3 3 4 6 7 4 2 2 2 1 1 0 0 -0 -0 -0 -0 -0 -1 -1 -1 -0 -1 -0 -1 -1 -1 -1 -1 -0 0 0
1 1 1 2 2 3 3 3 2 3 3 4 3 2 3 3 6 6 3 2 1 1 1 0 0 0 -0 -0 -0 -0 -0 -0 -1 -1 -1 -1 -1 -1 -1 -0 0 0 0
1 1 2 2 3 3 3 2 2 3 3 3 3 3 3 3 3 4 6 4 2 1 1 0 -0 -0 -0 -0 -0 -0 -0 -0 -0 -1 -1 -1 -1 -1 -1 -0 -0 0 0
1 2 2 2 3 3 2 2 2 3 3 3 2 2 3 4 4 4 5 4 4 2 1 0 0 0 -0 -0 -0 -0 0 1 1 -0 -1 -1 -1 -1 -1 -0 0 0 1
3 3 3 3 3 3 2 2 2 3 3 3 2 2 3 3 2 3 3 4 5 3 2 1 0 -0 -0 -0 -0 -0 0 1 1 1 0 -0 -1 -1 -1 -1 -0 0 0
4 3 2 2 2 2 2 2 2 2 2 2 3 3 3 2 1 2 3 4 5 4 3 3 0 0 0 -0 -0 -0 0 1 2 2 1 1 1 0 -0 -0 -0 -1 -1
2 2 2 2 2 2 2 2 2 2 2 3 3 3 2 2 1 1 1 2 4 6 5 3 3 1 0 -0 0 1 1 1 1 2 2 2 2 2 1 1 -0 -1 -1
3 2 2 2 2 2 2 2 3 1 1 2 2 2 2 2 1 1 1 2 2 3 5 2 2 1 0 0 0 1 1 2 2 2 2 2 3 2 1 1 0 -0 -1
2 2 2 2 3 3 2 3 2 1 1 1 1 2 2 2 1 2 1 1 2 2 4 3 2 1 1 1 1 2 2 2 2 3 2 2 2 2 1 1 1 1 -0
2 2 2 2 2 3 3 2 3 2 2 2 1 1 2 1 2 2 1 2 2 2 3 4 2 2 2 2 2 2 2 2 3 3 2 2 2 3 3 2 2 2 2
2 2 2 2 2 2 2 2 2 2 2 2 1 1 1 2 2 2 1 2 1 1 2 3 3 2 2 3 3 3 4 5 3 2 2 2 1 2 2 2 3 3 4
2 2 2 2 2 2 2 2 2 1 1 2 1 1 2 2 2 2 1 2 1 2 2 2 3 4 4 4 4 4 4 4 4 2 2 2 2 3 3 3 3 3 4
2 2 2 2 2 2 1 2 2 2 2 2 1 2 1 2 2 2 1 1 1 2 2 3 4 4 5 6 5 5 4 4 3 3 5 5 5 6 6 5 4 4 5
2 2 2 2 2 1 8 5 2 1 1 1 2 2 2 3 3 4 4 4 2 2 3 4 5 4 5 5 6 5 4 4 4 4 5 5 6 6 5 5 5 6 6
4 3 3 3 3 4 8 7 4 1 1 2 1 1 1 1 2 1 5 5 5 5 5 3 5 5 5 5 5 4 4 4 4 4 5 6 5 4 4 5 6 7 6
5 5 4 5 4 5 9 8 5 1 1 2 1 1 1 1 2 2 2 2 3 4 4 3 3 3 3 3 3 3 3 4 4 5 5 5 6 6 7 7 6 6 7
6 6 6 5 4 5 9 9 4 1 2 2 2 2 1 1 7 7 3 5 6 7 9 9 7 9 9 7 5 3 4 4 6 6 5 5 7 7 7 6 6 6 7
5 5 6 6 7 6 11 10 4 2 4 3 3 4 6 3 10 10 5 6 7 8 9 9 10 11 10 10 8 5 4 6 7 7 5 6 7 7 8 7 8 8 8